This demonstration page uses our WeatherBlox Daily Observations layout. Learn more.

39.92423, -83.80882

Hourly Observations for April 2, 2015

Temp ( °F °C ) Dew Point ( °F °C ) Humidity (%) Winds ( mph kmh ) Pressure ( in mb ) Visibility ( mi km ) Precip ( " mm )
12:56 am 00:56 Clear 50 10 31 -0.5 48 48 SSE 9 15 30.06 1018 8 12.87472 0 0
1:56 am 01:56 Clear 48 8.8 30 -1.1 50 50 SSE 8 13 30.02 1017 9 14.48406 0 0
2:56 am 02:56 Clear 47 8.3 30 -1.1 52 52 SSE 9 15 29.99 1016 8 12.87472 0 0
3:56 am 03:56 Clear 48 8.8 28 -2.2 46 46 SSE 10 17 29.98 1015 8 12.87472 0 0
4:56 am 04:56 Clear 46 7.7 28 -2.2 50 50 SSE 7 11 29.96 1015 8 12.87472 0 0
5:56 am 05:56 Clear 46 7.7 28 -2.2 50 50 SSE 9 15 29.96 1015 8 12.87472 0 0
6:56 am 06:56 Partly Cloudy 49 9.4 30 -1.1 48 48 SSE 7 11 29.97 1015 8 12.87472 0 0
7:56 am 07:56 Mostly Cloudy 53 11.6 29 -1.6 40 40 S 10 17 29.94 1014 7 11.26538 0 0
8:56 am 08:56 Partly Cloudy with Nearby Thunderstorms 56 13.3 33 0.5 42 42 SSW 14 22 29.95 1014 6 9.65604 0 0
9:03 am 09:03 Mostly Cloudy with Light Thunderstorms 54 12 37 3 54 54 SSW 12 19 29.97 1015 3 4.82802 0.01 0.254
9:12 am 09:12 Mostly Cloudy with Light Thunderstorms 52 11 39 4 62 62 SSW 16 26 29.97 1015 2 3.21868 0.03 0.762
9:28 am 09:28 Cloudy 50 10 43 6 76 76 SSW 12 19 29.97 1015 3 4.82802 0.05 1.27
9:35 am 09:35 Mostly Cloudy 48 9 45 7 87 87 S 12 19 30 1016 2.5 4.02335 0.06 1.524
9:42 am 09:42 Mostly Cloudy with Light Rain 48 9 46 8 94 94 S 13 20 30 1016 2.5 4.02335 0.07 1.778
9:56 am 09:56 Cloudy with Mist and Fog 50 10 47 8.3 89 89 S 7 11 29.93 1014 6 9.65604 0.07 1.778
10:56 am 10:56 Hazy 56 13.3 48 8.8 74 74 S 13 20 29.93 1013 6 9.65604 0 0
11:56 am 11:56 Mostly Cloudy with Haze 57 13.8 46 7.7 67 67 S 16 26 29.91 1013 6 9.65604 0 0
12:56 pm 12:56 Hazy 62 16.6 51 10.5 67 67 S 17 28 29.86 1011 6 9.65604 0 0
1:56 pm 13:56 Mostly Cloudy 65 18.3 55 12.7 70 70 SSW 17 28 29.85 1011 7 11.26538 0 0
2:27 pm 14:27 Cloudy with Haze 64 18 55 13 73 73 SSW 17 28 29.83 1010 6 9.65604 0 0
2:56 pm 14:56 Cloudy with Haze 63 17.2 56 13.3 78 78 SSW 20 31 29.84 1011 6 9.65604 0 0
3:33 pm 15:33 Cloudy with Mist and Fog 63 17 57 14 83 83 SW 21 33 29.83 1010 2.5 4.02335 0.01 0.254
3:38 pm 15:38 Cloudy with Heavy Rain 63 17 57 14 83 83 SW 20 31 29.83 1010 1.25 2.011675 0.03 0.762
3:56 pm 15:56 Cloudy with Mist and Fog 61 16.1 58 14.4 90 90 SSW 18 30 29.85 1011 5 8.0467 0.06 1.524
4:18 pm 16:18 Cloudy with Light Rain 61 16 57 14 88 88 S 13 20 29.8 1009 1.75 2.816345 0.04 1.016
4:29 pm 16:29 Mostly Cloudy with Mist and Fog 61 16 57 14 88 88 S 15 24 29.8 1009 3 4.82802 0.05 1.27
4:56 pm 16:56 Mostly Cloudy with Mist and Fog 60 15.5 59 15 97 97 S 16 26 29.8 1009 6 9.65604 0.05 1.27
5:23 pm 17:23 Mostly Cloudy with Mist and Fog 61 16 59 15 94 94 S 15 24 29.77 1008 6 9.65604 0 0
5:56 pm 17:56 Cloudy with Mist and Fog 62 16.6 60 15.5 93 93 SSW 18 30 29.81 1009 6 9.65604 0 0
6:28 pm 18:28 Cloudy with Mist and Fog 63 17 61 16 94 94 SW 16 26 29.8 1009 6 9.65604 0 0
6:56 pm 18:56 Mostly Cloudy with Mist and Fog 63 17.2 60 15.5 90 90 SSW 13 20 29.82 1010 6 9.65604 0 0
7:56 pm 19:56 Partly Cloudy with Mist and Fog 62 16.6 60 15.5 93 93 SSW 9 15 29.82 1010 5 8.0467 0 0
8:56 pm 20:56 Cloudy 62 16.6 61 16.1 97 97 SSW 7 11 29.84 1011 7 11.26538 0 0
9:19 pm 21:19 Cloudy with Light Rain 63 17 61 16 94 94 SSW 8 13 29.83 1010 5 8.0467 0.01 0.254
9:27 pm 21:27 Cloudy with Mist and Fog 63 17 61 16 94 94 SSW 9 15 29.83 1010 4 6.43736 0.02 0.508
9:49 pm 21:49 Cloudy with Thunderstorms 63 17 61 16 94 94 SW 9 15 29.85 1011 2 3.21868 0.11 2.794
9:56 pm 21:56 Cloudy with Heavy Thunderstorms 62 16.6 61 16.1 97 97 SW 9 15 29.86 1011 1.25 2.011675 0.2 5.08
10:04 pm 22:04 Cloudy with Thunderstorms 63 17 63 17 100 100 SSW 9 15 29.83 1010 1 1.60934 0.09 2.286
10:09 pm 22:09 Cloudy with Light Thunderstorms 63 17 63 17 100 100 S 7 11 29.83 1010 1.5 2.41401 0.11 2.794
10:12 pm 22:12 Cloudy with Heavy Thunderstorms 61 16 61 16 100 100 S 8 13 29.88 1012 2 3.21868 0.11 2.794
10:19 pm 22:19 Mostly Cloudy with Mist and Fog 61 16 61 16 100 100 SW 8 13 29.88 1012 3 4.82802 0.13 3.302
10:27 pm 22:27 Cloudy with Light Rain 61 16 61 16 100 100 WSW 5 7 29.88 1012 5 8.0467 0.13 3.302
10:44 pm 22:44 Mostly Cloudy 61 16 61 16 100 100 SW 9 15 29.88 1012 7 11.26538 0.13 3.302
10:47 pm 22:47 Cloudy 61 16 61 16 100 100 SW 8 13 29.88 1012 7 11.26538 0.13 3.302
10:56 pm 22:56 Cloudy 59 15 59 15 100 100 SSW 8 13 29.88 1012 7 11.26538 0.13 3.302
11:11 pm 23:11 Cloudy 57 14 57 14 100 100 SW 7 11 29.88 1012 7 11.26538 0 0.0254
11:27 pm 23:27 Cloudy with Mist and Fog 57 14 57 14 100 100 SW 7 11 29.88 1012 6 9.65604 0 0.0254
11:56 pm 23:56 Cloudy with Mist and Fog 58 14.4 58 14.4 100 100 SSW 12 19 29.88 1012 6 9.65604 0 0.0254

Powered by AerisWeather